Regional Weather Roundup
Issued by NWS

Home | Current Version | Previous Version | Graphics & Text | Print | Product List | Glossary On
Versions: 1 2 3 4 5 6 7 8 9 10 11 12 13 14 15 16 17 18 19 20 21 22 23 24 25 26 27 28 29 30 31 32 33 34 35 36 37 38 39 40 41 42 43 44 45 46 47 48 49 50
000
ASUS45 KBOU 280207
RWRCO

WEATHER ROUNDUP FOR COLORADO
NATIONAL WEATHER SERVICE DENVER/BOULDER CO
800 PM MDT THU AUG 27 2015

NOTE: "FAIR" INDICATES FEW OR NO CLOUDS BELOW 12000 FEET WITH NO
SIGNIFICANT WEATHER AND/OR OBSTRUCTIONS TO VISIBILITY.

COZ001>005-013-030-031-280300-
...NORTHWEST COLORADO...

CITY           SKY/WX    TMP DP  RH WIND       PRES   REMARKS
CRAIG          MOCLDY    67  46  47 N6        30.24R
HAYDEN         NOT AVBL
MEEKER         MOCLDY    68  54  60 N15       30.24S
MOUNT WERNER   NOT AVBL
STEAMBOAT SPGS MOCLDY    62  55  77 E5        30.23F
WALDEN         PTCLDY    55  46  71 E5        30.34F
$$

COZ006>008-011-280300-
...WEST CENTRAL VALLEYS...

CITY           SKY/WX    TMP DP  RH WIND       PRES   REMARKS
GRAND JUNCTION MOCLDY    75  58  55 NE6       30.13F
MONTROSE       PTCLDY    73  56  54 SW5       30.23S
EAGLE          MOCLDY    63  54  72 E7        30.30F
RIFLE          MOCLDY    66  60  81 CALM      30.22S
DELTA          RAIN      75  62  64 E5        30.18S
NUCLA          PTCLDY    73  48  40 NW7       30.26R
$$

COZ017>023-064>068-280300-
...SOUTHWEST COLORADO...

CITY           SKY/WX    TMP DP  RH WIND       PRES   REMARKS
DURANGO        PTCLDY    70  49  47 SW6       30.25R
CORTEZ         CLEAR     72  55  55 SW5       30.20S
PAGOSA SPRINGS CLOUDY    65  55  71 N3        30.36R
TELLURIDE      PTCLDY    58  50  73 CALM      30.48R
WOLF CREEK PAS FOG       45  45 100 SW7       30.66S VSB<1/4
$$

COZ009-010-012-014-032>034-037-058>063-280300-
...CENTRAL COLORADO...

CITY           SKY/WX    TMP DP  RH WIND       PRES   REMARKS
ASPEN          MOCLDY    58  54  86 SW3       30.37R
BUENA VISTA    PTCLDY    61  42  49 NW15      30.35R
COPPER MTN     CLOUDY    46  41  81 W13       30.64S
BERTHOUD PASS  FAIR      37  28  70 NW30G39   30.63F
COTTONWOOD PAS PTCLDY    59  43  55 W10G18    30.48R
GUNNISON       PTCLDY    64  48  55 N5        30.37R
KREMMLING      MOCLDY    59  50  72 W5        30.33S
LEADVILLE      PTCLDY    49  48  97 CALM      30.49F
MONARCH PASS   PTCLDY    46  43  87 W13       30.74R
SALIDA         PTCLDY    68  45  43 NW12      30.38R
SUNLIGHT       MOCLDY    52  46  82 N5        30.59F THUNDER
WILKERSON PASS MOCLDY    50  37  62 NW7       30.60R
$$

COZ069>075-280300-
...SAN LUIS VALLEY/SANGRE DE CRISTO MOUNTAINS...

CITY           SKY/WX    TMP DP  RH WIND       PRES   REMARKS
ALAMOSA        CLEAR     64  51  62 W7        30.30R
LA VETA PASS   CLOUDY    57  39  51 MISG      30.49R
SAGUACHE       PTCLDY    64  46  52 NW9       30.34R
$$

COZ035-036-038>040-280300-
...NORTHERN COLORADO FRONT RANGE...

CITY           SKY/WX    TMP DP  RH WIND       PRES   REMARKS
DENVER INTL AP MOCLDY    72  53  51 N7        30.15R
DMNS CITY PARK   N/A     70  53  54 E7        30.17R
AURORA         MOCLDY    70  54  57 SW3       30.19R
FRONT RANGE AP NOT AVBL
ERIE MUNI ARPT MOCLDY    70  60  71 SW3       30.14R
BOULDER MUN AP MOCLDY    72  54  53 S3        30.15R
CENTENNIAL     MOCLDY    67  59  75 S5        30.20R
BROOMFIELD     MOCLDY    68  55  64 SW5       30.18R
FORT COLLINS   MOCLDY    73  54  49 N5        30.12R
LONGMONT       MOCLDY    73  61  66 SW6       30.15R
$$

COZ041-046-047-076>085-087-088-280300-
...PIKES PEAK/PALMER DIVIDE AND SOUTHERN FOOTHILLS...

CITY           SKY/WX    TMP DP  RH WIND       PRES   REMARKS
COLO. SPRINGS  CLOUDY    66  56  70 N7        30.23R
A. F. ACADEMY  CLOUDY    61  57  86 N6        30.25R
ELLICOTT       CLOUDY   N/A N/A N/A E7        30.21S
FALCON         LGT RAIN  60  57  90 MISG      30.27S
FORT CARSON    CLOUDY    63  59  87 N6        30.19S
LIMON          CLOUDY    64  58  80 NW5       30.16R
MONUMENT HILL  MOCLDY    57  55  94 W5        30.29R
TRINIDAD       CLOUDY    70  55  59 SE7       30.13S
$$

COZ042>045-048>051-090-091-280300-
...NORTHEAST COLORADO...

CITY           SKY/WX    TMP DP  RH WIND       PRES   REMARKS
GREELEY ARPT   MOCLDY    73  55  53 NE7       30.12R
AKRON          CLOUDY    70  61  73 CALM      30.07R
BURLINGTON     CLOUDY    78  54  43 N10       30.03R
WRAY           MOCLDY    75  64  69 NW12      29.98R
STERLING       CLOUDY    73  57  56 NE5       30.03R
HOLYOKE        MOCLDY    79  61  53 N10       30.00R
FORT MORGAN    CLOUDY    67  60  78 N5        30.09R
$$

COZ086-089-092>099-280300-
...SOUTHEAST COLORADO...

CITY           SKY/WX    TMP DP  RH WIND       PRES   REMARKS
PUEBLO         CLOUDY    73  56  54 N18G32    30.13R
LA JUNTA       CLOUDY    75  60  59 N15       30.05R
LAMAR          CLOUDY    72  62  71 NE6       29.97F
SPRINGFIELD      N/A     75  56  51 N20G31    30.03R
$$




USA.gov is the U.S. government's official web portal to all federal, state and local government web resources and services.